Weather History for KCBF - March, 2013

Change the Weather History Date:

Wednesday, March 13, 2013

  Actual Average (KOMA) Record (KOMA)
Temperature  
Mean Temperature 24 °F 38 °F  
Max Temperature 33 °F 50 °F 81 °F (2012)
Min Temperature 15 °F 27 °F 0 °F (1880)
Degree Days  
Heating Degree Days 41 27  
Month to date heating degree days 381  
Since 1 July heating degree days 5179  
Cooling Degree Days 0 0  
Month to date cooling degree days 0  
Year to date cooling degree days 0  
Moisture  
Dew Point 18 °F    
Average Humidity 74    
Maximum Humidity 93    
Minimum Humidity 56    
Precipitation  
Precipitation 0.00 in 0.06 in 1.25 in (1913)
Month to date precipitation 0.66  
Year to date precipitation 2.23  
Snow  
Snow 0.00 in 0.10 in - ()
Month to date snowfall 2.1  
Since 1 July snowfall 23.3  
Snow Depth -    
Sea Level Pressure  
Sea Level Pressure 30.35 in    
Wind  
Wind Speed 7 mph (SSW)    
Max Wind Speed 13 mph    
Max Gust Speed 17 mph    
Visibility 10 miles    
Events      
T = Trace of Precipitation, MM = Missing Value Source: NWS Daily Summary

Daily Weather History Graph

Daily Weather History Graph

Search for Another Location

Airport or City:

Trip Planner

Search our weather history database for the weather conditions in past years. The results will help you decide how hot, cold, wet, or windy it might be!

Date:

Astronomy

Mar. 13, 2013 Rise Set
Actual Time 7:37 AM CDT 7:27 PM CDT
Civil Twilight 7:10 AM CDT 7:55 PM CDT
Nautical Twilight 6:38 AM CDT 8:27 PM CDT
Astronomical Twilight 6:05 AM CDT 8:59 PM CDT
Moon 8:16 AM CDT (3/13) 9:47 PM CDT (3/13)
Length of Visible Light 12h 45m
Length of Day
11h 50m
Waxing Crescent, 4% of the Moon is Illuminated
Mar 13
Waxing Crescent
Mar 19
First Quarter
Mar 27
Full
Apr 2
Last Quarter
Apr 10
New

Hourly Weather History & Observations

Time (CDT) Temp. Windchill Dew Point Humidity Pressure Visibility Wind Dir Wind Speed Gust Speed Precip Events Conditions
12:15 AM 23.0 °F 12.4 °F 17.6 °F 80% 30.31 in 10.0 mi NW 10.4 mph - N/A   Clear
12:55 AM 23.0 °F 14.7 °F 17.6 °F 80% 30.32 in 10.0 mi NW 6.9 mph - N/A   Clear
1:15 AM 23.0 °F 13.1 °F 17.6 °F 80% 30.32 in 10.0 mi NW 9.2 mph - N/A   Clear
1:35 AM 21.2 °F 13.6 °F 17.6 °F 86% 30.32 in 10.0 mi NW 5.8 mph 12.7 mph N/A   Clear
1:55 AM 21.2 °F 10.9 °F 15.8 °F 80% 30.33 in 10.0 mi NW 9.2 mph - N/A   Clear
2:15 AM 21.2 °F 8.9 °F 15.8 °F 80% 30.32 in 10.0 mi NW 12.7 mph - N/A   Clear
2:35 AM 23.0 °F 12.4 °F 15.8 °F 74% 30.33 in 10.0 mi NW 10.4 mph 17.3 mph N/A   Clear
2:55 AM 21.2 °F 11.7 °F 15.8 °F 80% 30.33 in 10.0 mi NW 8.1 mph - N/A   Clear
3:15 AM 21.2 °F 10.9 °F 15.8 °F 80% 30.33 in 10.0 mi NW 9.2 mph - N/A   Clear
3:55 AM 19.4 °F 9.5 °F 15.8 °F 86% 30.33 in 10.0 mi NW 8.1 mph - N/A   Clear
4:15 AM 19.4 °F 8.6 °F 15.8 °F 86% 30.33 in 10.0 mi NW 9.2 mph - N/A   Clear
4:35 AM 19.4 °F 7.9 °F 15.8 °F 86% 30.34 in 10.0 mi NW 10.4 mph - N/A   Clear
4:55 AM 19.4 °F 9.5 °F 15.8 °F 86% 30.35 in 10.0 mi NW 8.1 mph - N/A   Clear
5:15 AM 19.4 °F 11.5 °F 14.0 °F 80% 30.36 in 10.0 mi NW 5.8 mph - N/A   Clear
5:35 AM 17.6 °F 10.7 °F 14.0 °F 86% 30.36 in 10.0 mi North 4.6 mph - N/A   Clear
5:55 AM 17.6 °F 9.3 °F 14.0 °F 86% 30.37 in 10.0 mi NW 5.8 mph - N/A   Clear
6:15 AM 17.6 °F 9.3 °F 14.0 °F 86% 30.38 in 10.0 mi NW 5.8 mph - N/A   Clear
6:35 AM 17.6 °F 12.3 °F 14.0 °F 86% 30.38 in 10.0 mi WNW 3.5 mph - N/A   Clear
6:55 AM 17.6 °F 10.7 °F 14.0 °F 86% 30.38 in 10.0 mi NW 4.6 mph - N/A   Clear
7:15 AM 15.8 °F 8.6 °F 14.0 °F 93% 30.37 in 10.0 mi North 4.6 mph - N/A   Clear
7:35 AM 17.6 °F 10.7 °F 14.0 °F 86% 30.38 in 10.0 mi NW 4.6 mph - N/A   Clear
7:55 AM 15.8 °F 10.2 °F 14.0 °F 93% 30.39 in 9.0 mi West 3.5 mph - N/A   Clear
8:15 AM 17.6 °F - 14.0 °F 86% 30.39 in 10.0 mi Calm Calm - N/A   Clear
8:35 AM 17.6 °F 12.3 °F 14.0 °F 86% 30.40 in 10.0 mi NW 3.5 mph - N/A   Clear
8:55 AM 17.6 °F 8.2 °F 14.0 °F 86% 30.40 in 10.0 mi NNW 6.9 mph - N/A   Clear
9:15 AM 19.4 °F 10.4 °F 14.0 °F 80% 30.40 in 10.0 mi North 6.9 mph - N/A   Clear
9:35 AM 19.4 °F 8.6 °F 14.0 °F 80% 30.40 in 10.0 mi North 9.2 mph - N/A   Clear
9:55 AM 19.4 °F 10.4 °F 15.8 °F 86% 30.41 in 10.0 mi North 6.9 mph - N/A   Clear
10:15 AM 21.2 °F 13.6 °F 15.8 °F 80% 30.41 in 10.0 mi NNE 5.8 mph - N/A   Clear
10:35 AM 21.2 °F 14.9 °F 15.8 °F 80% 30.43 in 10.0 mi NNE 4.6 mph - N/A   Clear
10:55 AM 21.2 °F - 15.8 °F 80% 30.43 in 10.0 mi Calm Calm - N/A   Clear
11:15 AM 23.0 °F - 15.8 °F 74% 30.43 in 10.0 mi Calm Calm - N/A   Clear
11:35 AM 24.8 °F - 17.6 °F 74% 30.43 in 10.0 mi Calm Calm - N/A   Clear
11:55 AM 24.8 °F - 17.6 °F 74% 30.43 in 10.0 mi Calm Calm - N/A   Clear
12:15 PM 24.8 °F - 17.6 °F 74% 30.43 in 10.0 mi Calm Calm - N/A   Clear
12:35 PM 26.6 °F 21.2 °F 19.4 °F 74% 30.43 in 10.0 mi Variable 4.6 mph - N/A   Partly Cloudy
12:55 PM 26.6 °F 21.2 °F 19.4 °F 74% 30.43 in 10.0 mi SSE 4.6 mph - N/A   Scattered Clouds
1:15 PM 28.4 °F 22.2 °F 19.4 °F 69% 30.42 in 10.0 mi SE 5.8 mph - N/A   Partly Cloudy
1:35 PM 30.2 °F 21.9 °F 19.4 °F 64% 30.41 in 10.0 mi South 9.2 mph - N/A   Clear
1:55 PM 30.2 °F 24.3 °F 19.4 °F 64% 30.40 in 10.0 mi SSE 5.8 mph - N/A   Clear
2:15 PM 30.2 °F 22.6 °F 21.2 °F 69% 30.39 in 10.0 mi ESE 8.1 mph - N/A   Mostly Cloudy
2:35 PM 30.2 °F 22.6 °F 21.2 °F 69% 30.39 in 10.0 mi SE 8.1 mph - N/A   Overcast
2:55 PM 30.2 °F 23.4 °F 21.2 °F 69% 30.39 in 10.0 mi SSE 6.9 mph - N/A   Overcast
3:15 PM 30.2 °F 24.3 °F 23.0 °F 75% 30.37 in 10.0 mi SE 5.8 mph - N/A   Overcast
3:35 PM 32.0 °F 25.6 °F 23.0 °F 69% 30.36 in 10.0 mi SE 6.9 mph - N/A   Overcast
4:15 PM 32.0 °F 24.8 °F 21.2 °F 64% 30.35 in 10.0 mi South 8.1 mph - N/A   Overcast
4:35 PM 33.8 °F 28.6 °F 21.2 °F 60% 30.35 in 10.0 mi ESE 5.8 mph - N/A   Overcast
4:55 PM 33.8 °F 29.6 °F 21.2 °F 60% 30.34 in 10.0 mi SE 4.6 mph - N/A   Overcast
5:15 PM 33.8 °F 28.6 °F 19.4 °F 56% 30.33 in 10.0 mi South 5.8 mph - N/A   Overcast
5:35 PM 33.8 °F 28.6 °F 19.4 °F 56% 30.32 in 10.0 mi SSW 5.8 mph - N/A   Overcast
5:55 PM 33.8 °F 29.6 °F 19.4 °F 56% 30.31 in 10.0 mi SSE 4.6 mph - N/A   Scattered Clouds
6:15 PM 33.8 °F 26.4 °F 19.4 °F 56% 30.30 in 10.0 mi South 9.2 mph - N/A   Clear
6:35 PM 33.8 °F 27.7 °F 21.2 °F 60% 30.30 in 10.0 mi SSE 6.9 mph - N/A   Clear
6:55 PM 33.8 °F 28.6 °F 19.4 °F 56% 30.31 in 10.0 mi SW 5.8 mph - N/A   Clear
7:15 PM 33.8 °F 29.6 °F 19.4 °F 56% 30.30 in 10.0 mi South 4.6 mph - N/A   Clear
7:35 PM 33.8 °F 29.6 °F 19.4 °F 56% 30.30 in 10.0 mi South 4.6 mph - N/A   Clear
7:55 PM 32.0 °F 26.4 °F 21.2 °F 64% 30.29 in 10.0 mi SE 5.8 mph - N/A   Mostly Cloudy
8:15 PM 32.0 °F 25.6 °F 19.4 °F 60% 30.29 in 10.0 mi SE 6.9 mph - N/A   Scattered Clouds
8:35 PM 32.0 °F 24.8 °F 21.2 °F 64% 30.28 in 10.0 mi SE 8.1 mph - N/A   Clear
8:55 PM 30.2 °F 23.4 °F 21.2 °F 69% 30.27 in 10.0 mi SE 6.9 mph - N/A   Clear
9:15 PM 30.2 °F 21.9 °F 21.2 °F 69% 30.27 in 10.0 mi SE 9.2 mph - N/A   Clear
9:35 PM 32.0 °F 24.2 °F 21.2 °F 64% 30.26 in 10.0 mi SE 9.2 mph - N/A   Clear
9:55 PM 32.0 °F 23.6 °F 21.2 °F 64% 30.26 in 10.0 mi SE 10.4 mph - N/A   Clear
10:15 PM 32.0 °F 22.5 °F 21.2 °F 64% 30.26 in 10.0 mi SSE 12.7 mph - N/A   Clear
10:35 PM 32.0 °F 23.6 °F 23.0 °F 69% 30.26 in 10.0 mi SSE 10.4 mph - N/A   Clear
10:55 PM 30.2 °F 21.3 °F 23.0 °F 75% 30.25 in 10.0 mi SSE 10.4 mph - N/A   Clear
11:15 PM 32.0 °F 23.0 °F 23.0 °F 69% 30.25 in 10.0 mi South 11.5 mph - N/A   Clear
11:35 PM 32.0 °F 23.6 °F 23.0 °F 69% 30.25 in 10.0 mi SSE 10.4 mph - N/A   Clear
11:55 PM 32.0 °F 23.6 °F 23.0 °F 69% 30.25 in 10.0 mi South 10.4 mph - N/A   Clear